Location: Campestrin
(46.4667°N, 11.7167°E)
Time: 03:39:28
(UTC+00:00)

Cosmos 1076 Rocket - Pass Details

Date: 18 April 2021
Orbit: 589 x 613 km, 82.5° (Epoch: 16 May)

Event Time Altitude Azimuth Distance (km) Brightness Sun altitude
Rises 19:04:22 0° 359° (N) 2,885 7.4 -10.2°
Reaches altitude 10° 19:06:50 10° 10° (N) 1,972 6.4 -10.6°
Maximum altitude 19:10:41 30° 73° (ENE) 1,091 4.5 -11.2°
Enters shadow 19:13:20 17° 125° (SE) 1,557 5.0 -11.6°
